Location: Vinland
(47.7731°N, 122.6974°W)
Time: 02:23:11
(UTC+00:00)

S-56A Canister/Altair - Pass Details

Date: 04 April 2023
Orbit: 639 x 2492 km, 38.9° (Epoch: 31 May)

Event Time Altitude Azimuth Distance (km) Brightness Sun altitude
Rises 07:07:38 0° 278° (W) 5,563 12.2 -34.6°
Reaches altitude 10° 07:12:16 10° 265° (W) 4,797 11.7 -34.9°
Enters shadow 07:20:58 22° 226° (SW) 4,176 10.9 -35.3°
